Temp
-4 -4 -4 -4 -4 -4 -4 -4 -4 -4 -4 -4 -4 -4 -4 -4 -4 -4 -4 -4 -4 -4 -4 -4 -5 -5 -5 -5 -5 -5 -5 -5 -5 -5 -5 -6 -6 -6 -6 -6 -6 -6
-4 -4 -3 -4 -4 -4 -4 -4 -4 -4 -4 -4 -4 -4 -4 -4 -4 -4 -4 -4 -4 -4 -4 -4 -4 -5 -5 -5 -5 -5 -5 -5 -5 -5 -5 -5 -6 -6 -6 -6 -6 -6
-4 -3 -3 -3 -3 -3 -4 -4 -4 -4 -4 -4 -4 -4 -4 -4 -4 -4 -4 -4 -4 -4 -4 -4 -4 -4 -4 -5 -5 -5 -5 -5 -5 -5 -5 -5 -5 -6 -6 -6 -6 -6
-3 -3 -3 -3 -3 -3 -4 -4 -4 -4 -4 -4 -4 -4 -4 -4 -4 -4 -4 -4 -4 -4 -4 -4 -4 -4 -4 -4 -5 -5 -5 -5 -5 -5 -5 -5 -5 -5 -5 -6 -6 -6
-4 -3 -3 -3 -3 -3 -3 -3 -3 -4 -4 -4 -4 -4 -4 -4 -4 -4 -4 -4 -4 -4 -4 -4 -4 -4 -4 -4 -4 -4 -4 -5 -5 -5 -5 -5 -5 -5 -5 -5 -5 -5
-4 -3 -3 -3 -3 -3 -3 -3 -3 -3 -3 -3 -4 -4 -4 -4 -4 -4 -3 -3 -4 -4 -4 -4 -4 -4 -4 -4 -4 -4 -4 -4 -4 -4 -4 -4 -5 -5 -5 -5 -5 -5
-4 -4 -3 -3 -3 -3 -3 -3 -3 -3 -3 -3 -3 -3 -3 -3 -3 -3 -3 -3 -3 -3 -3 -3 -3 -3 -3 -3 -3 -4 -4 -4 -4 -4 -4 -4 -4 -4 -5 -5 -5 -5
-4 -4 -4 -3 -3 -3 -3 -3 -3 -3 -3 -3 -3 -3 -3 -3 -3 -3 -3 -3 -3 -3 -3 -3 -3 -3 -3 -3 -3 -3 -3 -4 -4 -4 -4 -4 -4 -4 -4 -4 -5 -5
-4 -4 -4 -4 -4 -4 -4 -3 -3 -3 -3 -3 -3 -3 -3 -3 -3 -3 -3 -3 -3 -3 -3 -3 -3 -3 -3 -3 -3 -3 -3 -3 -3 -4 -4 -4 -4 -4 -4 -4 -4 -4
-4 -5 -5 -4 -4 -4 -4 -4 -4 -3 -3 -3 -3 -3 -3 -3 -3 -3 -3 -3 -3 -3 -3 -3 -3 -3 -3 -3 -3 -3 -3 -3 -3 -3 -4 -4 -4 -4 -4 -4 -4 -4
-4 -5 -5 -5 -5 -5 -4 -4 -4 -4 -4 -3 -3 -3 -3 -3 -3 -3 -3 -3 -3 -3 -3 -3 -3 -3 -3 -3 -3 -3 -3 -3 -3 -3 -3 -4 -4 -4 -4 -4 -4 -4
-5 -5 -5 -5 -5 -5 -5 -4 -4 -4 -4 -4 -3 -3 -3 -3 -3 -3 -3 -3 -3 -3 -3 -3 -3 -3 -3 -3 -3 -3 -3 -3 -3 -3 -3 -3 -4 -4 -4 -4 -4 -4
-5 -5 -5 -5 -5 -5 -5 -5 -5 -4 -4 -4 -4 -3 -3 -3 -3 -3 -3 -3 -3 -3 -3 -3 -3 -3 -3 -3 -3 -3 -3 -3 -3 -3 -3 -3 -4 -4 -4 -4 -4 -4
-5 -6 -6 -5 -5 -5 -5 -5 -5 -4 -4 -4 -4 -4 -4 -3 -3 -3 -3 -3 -3 -3 -3 -3 -3 -3 -3 -3 -3 -3 -3 -3 -3 -3 -4 -4 -4 -4 -4 -4 -4 -4
-6 -6 -6 -6 -6 -5 -5 -5 -5 -5 -5 -5 -4 -4 -4 -4 -3 -3 -3 -3 -3 -3 -3 -3 -3 -3 -3 -3 -3 -3 -3 -3 -3 -3 -4 -4 -4 -4 -4 -4 -4 -4
-6 -6 -6 -6 -6 -5 -5 -5 -5 -5 -5 -5 -4 -4 -4 -4 -4 -4 -3 -4 -4 -3 -3 -3 -3 -4 -4 -3 -3 -3 -3 -3 -3 -4 -4 -4 -4 -4 -4 -4 -4 -5
-6 -7 -7 -7 -6 -6 -6 -6 -6 -5 -5 -5 -5 -5 -5 -4 -4 -4 -4 -4 -4 -4 -4 -3 -3 -4 -4 -4 -4 -4 -3 -3 -3 -4 -4 -4 -4 -5 -5 -5 -5 -5
-7 -7 -7 -7 -6 -6 -6 -5 -5 -5 -5 -5 -5 -5 -5 -5 -5 -4 -4 -4 -4 -4 -4 -4 -4 -4 -4 -4 -4 -4 -4 -4 -4 -4 -4 -4 -5 -5 -5 -5 -5 -5
-7 -7 -7 -7 -6 -6 -5 -5 -5 -5 -5 -5 -5 -5 -5 -5 -5 -5 -5 -4 -4 -4 -4 -4 -4 -4 -4 -4 -4 -4 -4 -4 -4 -4 -4 -5 -5 -5 -5 -5 -5 -5
-7 -7 -7 -7 -6 -6 -6 -6 -6 -6 -6 -6 -6 -6 -5 -5 -5 -5 -5 -4 -4 -4 -4 -5 -5 -5 -4 -5 -5 -5 -4 -4 -4 -4 -4 -5 -5 -5 -5 -5 -5 -6
-7 -6 -6 -6 -6 -6 -6 -6 -6 -6 -6 -6 -6 -6 -7 -6 -6 -5 -5 -5 -5 -5 -5 -5 -5 -5 -5 -5 -5 -5 -5 -4 -4 -4 -5 -5 -5 -5 -6 -6 -6 -6
-6 -6 -6 -6 -6 -6 -6 -6 -6 -6 -6 -6 -6 -7 -7 -7 -7 -6 -6 -6 -5 -5 -5 -5 -5 -5 -5 -5 -5 -5 -5 -5 -4 -4 -5 -5 -5 -6 -6 -6 -6 -6
-6 -6 -6 -6 -6 -6 -7 -7 -7 -6 -6 -7 -7 -7 -7 -7 -7 -7 -6 -6 -6 -5 -5 -5 -5 -5 -5 -5 -6 -6 -5 -5 -5 -4 -4 -5 -5 -6 -6 -6 -6 -6
-6 -6 -6 -6 -7 -7 -7 -7 -7 -7 -7 -7 -7 -7 -7 -7 -7 -7 -6 -6 -6 -6 -6 -5 -5 -5 -5 -5 -5 -6 -6 -5 -5 -5 -5 -5 -5 -5 -6 -6 -6 -6
-6 -6 -6 -6 -7 -7 -7 -7 -6 -6 -6 -7 -7 -7 -7 -7 -7 -7 -7 -6 -6 -6 -6 -6 -6 -6 -5 -5 -5 -6 -6 -6 -5 -5 -5 -5 -5 -5 -6 -6 -6 -6
-7 -7 -7 -6 -7 -7 -7 -7 -7 -6 -6 -7 -7 -7 -7 -7 -7 -7 -7 -7 -6 -6 -6 -5 -5 -5 -5 -5 -5 -5 -5 -6 -6 -5 -5 -5 -5 -5 -5 -6 -6 -6
Height
5947 5949 5950 5952 5954 5955 5957 5958 5959 5960 5961 5962 5963 5964 5964 5965 5966 5967 5967 5968 5968 5969 5969 5970 5970 5970 5971 5971 5972 5972 5973 5974 5974 5975 5975 5975 5976 5976 5977 5978 5978 5978
5947 5948 5950 5951 5953 5954 5956 5958 5959 5960 5961 5962 5963 5964 5964 5965 5966 5966 5967 5968 5969 5969 5970 5970 5970 5971 5971 5971 5972 5972 5973 5973 5974 5974 5974 5975 5975 5976 5976 5977 5977 5978
5947 5948 5949 5950 5952 5954 5955 5957 5958 5960 5961 5961 5962 5963 5964 5965 5965 5966 5967 5968 5969 5969 5970 5970 5970 5971 5971 5972 5972 5972 5972 5973 5973 5974 5974 5974 5975 5975 5976 5976 5977 5977
5946 5947 5949 5950 5951 5953 5955 5956 5958 5959 5960 5961 5962 5963 5964 5964 5965 5966 5967 5967 5968 5969 5969 5970 5970 5970 5971 5971 5972 5972 5972 5973 5973 5973 5974 5974 5974 5975 5975 5976 5976 5977
5945 5946 5948 5950 5951 5952 5954 5955 5957 5958 5959 5960 5961 5962 5963 5964 5965 5965 5966 5967 5968 5968 5969 5969 5970 5970 5970 5971 5971 5972 5972 5973 5973 5973 5974 5974 5974 5974 5975 5975 5976 5976
5944 5945 5947 5949 5950 5952 5953 5954 5956 5957 5958 5960 5961 5962 5963 5963 5964 5965 5966 5966 5967 5968 5968 5969 5969 5969 5970 5970 5971 5971 5972 5972 5973 5973 5973 5974 5974 5974 5974 5975 5975 5976
5942 5944 5946 5947 5949 5951 5952 5953 5955 5956 5957 5959 5960 5961 5962 5963 5964 5964 5965 5966 5966 5967 5968 5968 5969 5969 5969 5970 5970 5971 5971 5972 5972 5973 5973 5974 5974 5974 5974 5974 5975 5976
5941 5942 5944 5946 5948 5949 5951 5952 5954 5955 5957 5958 5959 5960 5962 5963 5964 5964 5965 5966 5966 5966 5967 5967 5968 5968 5969 5969 5970 5971 5971 5972 5972 5973 5973 5973 5973 5973 5974 5974 5975 5975
5939 5941 5943 5945 5946 5948 5950 5951 5953 5955 5956 5957 5958 5959 5961 5962 5963 5964 5965 5965 5966 5966 5967 5967 5968 5968 5968 5969 5969 5970 5971 5971 5972 5972 5973 5973 5973 5973 5974 5974 5975 5975
5938 5940 5941 5943 5945 5947 5948 5950 5952 5953 5955 5956 5957 5959 5960 5961 5962 5963 5964 5965 5966 5966 5967 5967 5968 5968 5968 5969 5969 5969 5970 5971 5971 5972 5973 5973 5973 5973 5974 5974 5974 5975
5935 5937 5939 5941 5943 5945 5946 5948 5950 5952 5953 5955 5956 5958 5959 5960 5961 5962 5963 5964 5965 5966 5966 5967 5968 5968 5968 5968 5968 5969 5969 5970 5971 5971 5972 5973 5973 5973 5974 5974 5974 5975
5933 5935 5937 5939 5940 5942 5943 5945 5947 5949 5951 5953 5955 5956 5957 5958 5960 5961 5962 5963 5964 5965 5966 5966 5967 5967 5968 5968 5968 5968 5969 5969 5970 5971 5971 5972 5973 5973 5974 5974 5974 5975
5932 5933 5934 5935 5937 5938 5940 5942 5944 5946 5948 5950 5952 5954 5956 5957 5958 5959 5960 5962 5963 5964 5965 5965 5966 5967 5967 5967 5967 5967 5968 5968 5969 5970 5970 5971 5972 5972 5973 5973 5974 5974
5930 5933 5935 5936 5935 5936 5937 5939 5941 5943 5945 5947 5949 5951 5953 5955 5956 5958 5959 5960 5961 5962 5963 5964 5965 5965 5966 5966 5966 5966 5967 5967 5968 5968 5969 5970 5970 5971 5971 5972 5973 5974
5928 5932 5935 5937 5937 5936 5936 5937 5939 5940 5942 5944 5946 5948 5950 5952 5954 5955 5957 5958 5959 5960 5961 5962 5963 5964 5964 5964 5965 5965 5965 5966 5966 5967 5968 5969 5969 5970 5970 5971 5971 5972
5925 5928 5931 5933 5933 5934 5935 5936 5937 5938 5939 5940 5942 5944 5946 5948 5950 5952 5954 5956 5957 5958 5959 5960 5961 5962 5962 5963 5963 5963 5964 5964 5965 5966 5966 5967 5968 5968 5969 5969 5970 5971
5921 5923 5926 5927 5928 5929 5931 5933 5934 5935 5936 5937 5939 5941 5943 5945 5946 5948 5950 5952 5954 5955 5956 5958 5959 5960 5960 5961 5961 5962 5962 5963 5963 5964 5965 5966 5966 5967 5968 5968 5969 5969
5917 5919 5922 5923 5924 5925 5926 5927 5930 5931 5932 5934 5935 5936 5938 5940 5942 5944 5946 5948 5950 5952 5954 5955 5957 5958 5958 5958 5959 5959 5960 5961 5961 5962 5963 5964 5965 5965 5966 5967 5967 5968
5914 5917 5919 5920 5921 5921 5921 5923 5926 5927 5928 5931 5933 5933 5933 5935 5938 5940 5942 5944 5946 5948 5950 5952 5953 5954 5956 5956 5956 5956 5957 5958 5959 5960 5960 5962 5962 5963 5964 5965 5965 5966
5908 5912 5915 5916 5917 5918 5918 5920 5922 5923 5925 5929 5932 5933 5932 5933 5935 5937 5939 5941 5942 5944 5946 5948 5950 5951 5952 5953 5953 5953 5954 5955 5956 5957 5958 5959 5960 5961 5962 5963 5963 5964
5903 5906 5909 5910 5912 5914 5915 5917 5920 5922 5924 5928 5932 5935 5935 5934 5934 5936 5938 5940 5941 5942 5943 5945 5946 5947 5948 5950 5950 5950 5950 5951 5953 5955 5956 5957 5958 5959 5959 5960 5961 5961
5900 5902 5904 5906 5908 5910 5912 5914 5917 5919 5921 5924 5929 5933 5935 5934 5933 5933 5935 5936 5937 5938 5940 5941 5943 5944 5944 5946 5947 5947 5946 5947 5949 5951 5953 5954 5954 5955 5956 5957 5958 5958
5897 5899 5900 5902 5905 5908 5910 5912 5914 5915 5917 5919 5923 5926 5929 5929 5928 5928 5928 5929 5931 5933 5934 5935 5937 5938 5939 5941 5942 5942 5943 5943 5945 5947 5949 5950 5951 5952 5952 5953 5954 5955
5893 5895 5896 5899 5902 5905 5907 5909 5911 5912 5914 5916 5918 5921 5923 5923 5924 5924 5925 5925 5927 5928 5929 5930 5931 5932 5933 5934 5936 5937 5938 5939 5940 5942 5944 5946 5948 5948 5949 5950 5950 5951
5889 5890 5892 5895 5898 5900 5903 5905 5907 5908 5910 5912 5914 5916 5917 5918 5919 5920 5922 5923 5923 5925 5926 5927 5927 5928 5929 5930 5932 5933 5934 5935 5936 5938 5940 5942 5944 5945 5945 5946 5947 5947
5886 5886 5888 5890 5893 5896 5897 5899 5901 5904 5906 5908 5910 5911 5912 5913 5914 5915 5917 5918 5918 5919 5920 5921 5922 5924 5925 5928 5929 5930 5931 5933 5933 5934 5936 5938 5940 5941 5942 5943 5944 5944
Wind_Speed
15 14 13 11 10 10 9 8 8 7 6 6 6 6 5 5 4 4 4 4 4 4 3 3 3 3 3 3 2 2 2 3 3 3 3 4 4 4 3 3 3 3
17 16 14 13 12 11 10 9 8 8 7 7 7 7 6 5 5 4 4 4 4 4 4 4 4 4 3 3 3 3 3 3 3 3 3 4 5 5 4 4 4 5
18 17 16 15 13 12 11 10 9 9 8 8 8 8 7 6 6 5 4 4 4 4 4 4 5 4 4 4 4 3 3 3 3 3 4 4 5 6 5 5 5 6
18 18 17 16 14 13 12 11 11 10 9 10 9 9 8 7 6 6 5 5 5 5 5 4 5 5 5 5 5 4 4 4 3 4 4 5 5 6 6 6 6 7
19 19 17 17 15 15 14 13 12 11 11 11 11 10 9 8 8 7 6 5 5 5 5 5 5 5 5 5 5 5 5 4 4 4 4 5 5 6 6 7 7 7
19 19 18 17 16 16 16 15 14 13 12 12 12 12 11 9 9 8 6 6 5 6 6 6 6 6 6 6 6 6 6 5 6 5 4 4 5 5 6 7 7 7
20 20 19 18 17 17 17 16 15 14 14 13 13 13 12 10 10 8 7 6 6 6 6 6 6 6 7 6 7 7 6 7 7 6 5 4 4 5 5 6 6 7
21 21 20 19 18 18 18 17 16 15 15 14 14 14 12 11 10 9 8 7 7 6 6 6 6 6 7 7 7 7 7 8 8 8 7 5 4 4 4 5 5 6
22 22 22 21 20 19 18 18 17 16 16 15 15 14 13 12 11 10 9 8 8 7 6 6 6 6 6 7 7 8 8 8 9 9 9 7 6 5 4 4 4 5
22 22 22 21 21 20 19 19 19 18 17 17 16 15 14 13 12 11 10 10 9 8 6 5 5 5 6 6 7 8 9 9 9 10 10 9 8 6 5 5 4 4
24 23 23 22 22 22 21 20 20 19 18 18 17 16 15 15 14 13 12 11 10 9 7 5 5 5 5 6 7 8 9 10 10 10 10 11 10 8 7 6 5 5
24 24 24 24 23 24 23 22 21 20 20 20 19 18 17 17 16 15 14 13 12 10 8 7 5 5 5 5 6 7 9 10 11 10 10 11 12 11 9 8 7 6
25 25 25 26 26 26 26 24 22 21 21 21 20 20 19 19 18 17 16 15 14 12 10 9 7 6 6 6 6 7 8 10 11 11 11 11 12 13 12 11 10 9
27 24 25 26 27 28 28 26 24 22 21 22 22 21 20 20 20 20 19 18 16 14 12 11 10 9 9 8 8 8 9 10 11 12 12 12 12 12 13 13 13 12
28 26 26 27 28 28 27 26 25 24 23 23 23 22 22 22 21 21 20 19 18 17 15 13 12 11 11 11 11 10 10 11 11 12 12 12 12 12 13 14 14 13
27 26 27 30 31 28 27 27 27 26 25 24 23 23 23 23 22 22 21 20 19 19 18 16 14 14 14 14 14 13 12 12 12 12 13 13 13 13 13 13 13 13
24 25 28 32 32 29 27 28 29 28 27 26 25 25 24 24 23 23 22 21 21 20 20 18 17 16 17 16 16 15 15 14 14 14 14 14 14 14 14 14 14 13
28 28 30 32 33 31 30 30 31 30 29 29 28 27 26 26 25 24 23 22 22 21 21 20 19 18 18 19 19 18 17 16 16 16 16 16 16 15 15 15 15 14
27 29 31 33 34 35 35 33 32 32 32 31 31 30 30 29 28 26 25 24 23 22 21 21 21 21 20 20 21 21 20 19 18 18 17 17 17 17 17 16 16 16
27 29 30 31 33 36 36 34 32 32 32 32 32 32 31 30 29 28 27 26 25 24 23 22 22 22 22 22 22 23 23 22 20 19 19 19 19 19 19 18 18 18
29 30 31 32 33 34 35 34 32 31 30 31 33 32 29 27 28 29 28 27 26 26 25 24 23 23 24 23 23 25 26 25 22 20 20 20 20 20 20 21 21 20
30 30 33 35 35 33 33 34 32 30 30 30 32 32 30 27 28 29 28 28 28 28 27 26 25 25 26 25 24 26 28 28 25 22 21 20 21 22 23 23 23 22
31 31 33 35 35 33 32 31 30 29 29 29 30 32 32 29 28 29 28 28 29 30 30 29 29 28 28 27 27 27 29 29 28 26 23 22 22 23 24 25 25 25
34 33 32 32 33 33 33 31 29 28 27 27 27 30 31 30 30 29 28 30 31 32 31 31 31 32 32 31 30 30 30 30 30 29 27 24 23 24 25 26 27 27
37 35 33 31 31 33 34 33 31 30 29 27 28 30 31 31 31 30 29 31 32 31 31 31 32 33 33 32 32 32 32 32 32 31 29 28 26 25 26 27 28 29
40 38 36 33 32 32 34 34 34 32 30 28 29 31 31 31 31 32 32 32 32 32 32 34 35 35 34 32 32 33 33 34 34 33 32 31 29 28 27 28 28 29
Wind_Direction
210 210 208 205 203 203 203 199 197 198 207 215 215 212 213 222 224 215 213 211 201 190 182 175 173 181 195 201 202 209 234 250 251 252 249 252 256 252 248 249 250 246
216 215 212 209 208 207 206 204 204 205 208 214 218 219 216 217 219 214 209 209 207 197 188 186 182 185 192 194 200 207 214 224 235 246 246 248 253 250 243 238 238 242
222 220 217 214 211 211 210 208 211 213 215 217 220 222 219 215 213 210 207 211 218 215 205 196 190 188 190 192 199 205 209 212 220 241 249 246 249 251 247 240 235 239
225 227 225 221 215 212 212 212 215 218 221 222 223 223 220 216 215 213 211 215 226 234 231 220 207 200 196 195 200 205 209 214 221 231 243 247 250 249 245 240 237 241
225 228 229 227 221 216 214 215 217 220 224 225 225 225 222 220 221 222 219 218 224 232 238 237 228 218 210 203 202 206 207 211 220 225 229 235 243 245 241 238 239 242
223 228 230 229 226 221 221 221 219 220 224 226 227 227 225 225 227 228 225 225 227 227 230 234 233 228 221 214 208 206 204 203 211 217 220 227 233 237 238 237 237 240
223 226 228 228 227 225 226 227 223 222 223 224 227 230 230 230 232 233 232 233 233 231 229 228 229 229 225 219 214 210 206 202 204 207 211 217 222 228 235 235 236 238
224 226 227 228 227 226 229 232 229 227 226 225 228 233 235 235 236 238 239 240 238 235 234 231 229 229 228 222 215 212 211 209 205 203 203 204 207 215 224 229 234 238
225 227 229 229 228 226 227 231 233 232 230 228 230 234 239 239 239 242 245 247 247 240 236 234 232 232 232 230 222 215 214 214 212 208 204 202 201 200 206 213 220 230
226 227 231 232 232 230 228 228 231 233 232 232 234 236 240 241 240 243 246 251 253 251 246 240 236 237 238 237 231 223 218 217 217 215 210 208 206 200 196 199 204 212
224 225 228 232 236 236 232 229 229 231 233 234 235 237 240 242 241 241 244 249 254 256 257 253 245 242 243 243 241 234 226 220 220 221 218 215 214 210 202 198 199 200
228 226 225 228 233 237 236 233 229 230 233 235 237 238 239 243 243 241 243 246 251 255 260 263 261 256 253 252 249 244 236 228 223 224 224 222 220 219 216 210 205 202
235 231 227 227 229 232 234 235 231 230 232 236 238 239 240 242 244 243 243 244 247 250 255 262 268 271 269 263 260 257 248 237 230 227 227 226 225 225 224 223 218 212
240 240 240 238 234 231 232 234 232 230 230 235 239 240 241 242 243 244 245 246 247 247 249 255 261 268 273 272 268 267 262 253 241 234 230 229 228 228 228 229 228 225
237 240 244 246 245 239 236 236 236 234 231 232 236 240 242 243 243 245 246 248 250 250 249 251 255 261 267 270 270 269 269 266 255 244 238 233 231 230 231 233 233 233
228 230 233 238 242 244 245 244 241 237 235 232 233 236 240 243 244 246 246 247 250 252 252 251 254 259 261 263 266 267 267 268 263 254 246 239 235 233 233 236 237 237
233 235 233 230 231 237 246 248 246 242 239 236 234 234 238 241 243 245 246 248 249 251 254 253 253 258 261 262 263 263 264 265 263 258 251 244 239 235 234 236 238 240
238 238 234 229 229 234 240 243 245 246 244 241 238 236 236 237 239 241 243 246 248 250 254 256 256 257 260 263 263 261 261 261 260 258 253 246 241 236 234 235 236 238
238 232 228 229 233 237 238 239 242 244 246 245 242 238 237 235 234 236 238 241 244 246 249 253 257 258 259 261 263 262 259 257 256 255 252 248 243 239 236 234 234 236
240 233 229 230 234 238 240 241 240 241 246 249 245 240 240 241 240 237 235 237 240 241 244 246 250 254 256 258 260 262 260 257 253 252 251 249 246 242 238 236 235 235
239 237 235 234 235 238 241 242 242 241 245 252 253 247 245 252 257 253 247 244 243 243 244 243 244 248 251 253 256 258 259 257 253 251 250 249 247 244 241 238 236 236
237 238 239 237 236 239 242 244 244 240 238 244 251 250 246 251 261 263 260 257 253 250 250 249 248 248 249 250 251 253 256 257 255 252 249 247 247 245 243 240 238 237
238 239 239 237 236 238 241 242 243 242 239 239 241 242 244 246 249 252 257 259 255 252 250 249 248 249 250 250 251 252 254 256 257 254 251 248 247 245 244 243 241 240
241 240 239 236 235 237 238 239 240 240 240 240 240 242 246 249 248 247 250 254 255 254 253 250 248 247 247 247 249 250 253 255 257 256 253 251 249 248 246 245 243 243
245 243 241 240 237 235 236 237 237 236 236 236 238 242 245 247 249 248 247 249 253 256 256 255 254 252 250 250 251 250 251 254 256 257 256 254 251 249 248 246 245 244
248 246 244 242 240 238 238 238 236 237 241 240 236 237 240 243 247 247 246 246 247 248 250 251 252 252 253 255 256 256 255 255 256 257 259 258 256 253 251 250 249 247